FW4741 Weather Reports


time (UTC)temp
C
wind
direction
speed
KPH
gust
KPH
rain 1hr
cm
rain 24hr
cm
rain mn
cm
humidity
%
barometer
mb
20260502162604 25 77 3.2 9.7 0.00 0.00 0.00 36 1021.6
20260502162104 25 77 3.2 9.7 0.00 0.00 0.00 34 1021.7
20260502161603 25 77 3.2 9.7 0.00 0.00 0.00 35 1021.7
20260502161104 24 77 3.2 9.7 0.00 0.00 0.00 36 1021.8
20260502160604 24 77 3.2 9.7 0.00 0.00 0.00 39 1021.8
20260502152104 21 77 3.2 9.7 0.00 0.00 0.00 47 1021.9
20260502151603 21 77 3.2 9.7 0.00 0.00 0.00 49 1021.8
20260502151104 21 77 3.2 9.7 0.00 0.00 0.00 48 1021.8
20260502150603 20 77 3.2 9.7 0.00 0.00 0.00 51 1021.8
20260502150103 20 77 3.2 9.7 0.00 0.00 0.00 50 1021.9
20260502140104 16 77 3.2 9.7 0.00 0.00 0.00 60 1021.8
20260502130103 14 77 3.2 9.7 0.00 0.00 0.00 67 1021.4
20260502123604 13 77 3.2 9.7 0.00 0.00 0.00 69 1021.2
20260502123104 13 77 3.2 9.7 0.00 0.00 0.00 69 1021.1
20260502122604 13 77 3.2 9.7 0.00 0.00 0.00 70 1021.1
20260502122104 13 77 3.2 9.7 0.00 0.00 0.00 71 1021.2
20260502121603 13 77 3.2 9.7 0.00 0.00 0.00 71 1021.1
20260502121104 13 77 3.2 9.7 0.00 0.00 0.00 71 1021.1
20260502120604 13 77 3.2 9.7 0.00 0.00 0.00 71 1021.0
20260502115604 13 77 3.2 9.7 0.00 0.00 0.00 73 1021.0
20260502115104 13 77 3.2 9.7 0.00 0.00 0.00 72 1021.0
20260502113604 14 77 3.2 9.7 0.00 0.00 0.00 68 1020.8
20260502113104 14 77 3.2 9.7 0.00 0.00 0.00 67 1020.8
20260502112104 14 77 3.2 9.7 0.00 0.00 0.00 67 1020.7
20260502111604 14 77 3.2 9.7 0.00 0.00 0.00 67 1020.7
20260502111104 14 77 3.2 9.7 0.00 0.00 0.00 67 1020.6
20260502110604 13 77 3.2 9.7 0.00 0.00 0.00 69 1020.6
20260502105604 13 77 3.2 9.7 0.00 0.00 0.00 71 1020.6
20260502105104 14 77 3.2 9.7 0.00 0.00 0.00 70 1020.6
20260502104604 14 77 3.2 9.7 0.00 0.00 0.00 70 1020.5
20260502103604 14 77 3.2 9.7 0.00 0.00 0.00 69 1020.5
20260502103103 14 77 3.2 9.7 0.00 0.00 0.00 69 1020.5
20260502102603 15 77 3.2 9.7 0.00 0.00 0.00 68 1020.4
20260502102104 15 77 3.2 9.7 0.00 0.00 0.00 67 1020.4
20260502101104 15 77 3.2 9.7 0.00 0.00 0.00 66 1020.3
20260502100604 15 77 3.2 9.7 0.00 0.00 0.00 67 1020.3
20260502100103 15 77 3.2 9.7 0.00 0.00 0.00 66 1020.2
20260502091104 15 77 3.2 9.7 0.00 0.00 0.00 68 1020.0
20260502090604 15 77 3.2 9.7 0.00 0.00 0.00 68 1020.0
20260502090104 15 77 3.2 9.7 0.00 0.00 0.00 68 1020.1
20260502080104 16 77 3.2 9.7 0.00 0.00 0.00 62 1020.3
20260502071104 17 77 3.2 9.7 0.00 0.00 0.00 61 1020.4
20260502070604 17 77 3.2 9.7 0.00 0.00 0.00 61 1020.4
20260502070103 17 77 3.2 9.7 0.00 0.00 0.00 60 1020.4
20260502065604 17 77 3.2 9.7 0.00 0.00 0.00 60 1020.4
20260502065104 17 77 3.2 9.7 0.00 0.00 0.00 59 1020.5
20260502064604 17 77 3.2 9.7 0.00 0.00 0.00 59 1020.4
20260502064103 17 77 3.2 9.7 0.00 0.00 0.00 59 1020.5
20260502063604 17 77 3.2 9.7 0.00 0.00 0.00 59 1020.4
20260502063104 17 77 3.2 9.7 0.00 0.00 0.00 59 1020.4
20260502062604 17 77 3.2 9.7 0.00 0.00 0.00 59 1020.5
20260502062104 17 77 3.2 9.7 0.00 0.00 0.00 60 1020.5
20260502061604 17 77 3.2 9.7 0.00 0.00 0.00 59 1020.5
20260502061104 17 77 3.2 9.7 0.00 0.00 0.00 59 1020.5
20260502060604 18 77 3.2 9.7 0.00 0.00 0.00 59 1020.5
20260502060104 18 77 3.2 9.7 0.00 0.00 0.00 58 1020.4
20260502055604 18 77 3.2 9.7 0.00 0.00 0.00 57 1020.4
20260502055103 18 77 3.2 9.7 0.00 0.00 0.00 58 1020.4
20260502054604 18 77 3.2 9.7 0.00 0.00 0.00 58 1020.4
20260502054104 18 77 3.2 9.7 0.00 0.00 0.00 58 1020.4
20260502053604 18 77 3.2 9.7 0.00 0.00 0.00 57 1020.4
20260502053103 18 77 3.2 9.7 0.00 0.00 0.00 56 1020.4
20260502052104 18 77 3.2 9.7 0.00 0.00 0.00 55 1020.3
20260502051604 18 77 3.2 9.7 0.00 0.00 0.00 57 1020.3
20260502051104 18 77 3.2 9.7 0.00 0.00 0.00 57 1020.4
20260502050604 18 77 3.2 9.7 0.00 0.00 0.00 56 1020.4
20260502050104 19 77 3.2 9.7 0.00 0.00 0.00 52 1020.3
20260502045604 18 77 3.2 9.7 0.00 0.00 0.00 53 1020.2
20260502045104 18 77 3.2 9.7 0.00 0.00 0.00 55 1020.2
20260502044604 18 77 3.2 9.7 0.00 0.00 0.00 56 1020.2
20260502044104 19 77 3.2 9.7 0.00 0.00 0.00 56 1020.2
20260502043104 20 77 3.2 9.7 0.00 0.00 0.00 53 1020.0
20260502042603 20 77 3.2 9.7 0.00 0.00 0.00 52 1020.0
20260502042104 20 77 3.2 9.7 0.00 0.00 0.00 52 1020.0
20260502041604 20 77 3.2 9.7 0.00 0.00 0.00 51 1020.0
20260502041104 20 77 3.2 9.7 0.00 0.00 0.00 50 1020.0
20260502040104 20 77 3.2 9.7 0.00 0.00 0.00 50 1019.9
20260502035604 20 77 3.2 9.7 0.00 0.00 0.00 50 1019.9
20260502035104 20 77 3.2 9.7 0.00 0.00 0.00 50 1019.9
20260502034604 20 77 3.2 9.7 0.00 0.00 0.00 50 1019.9
20260502033604 21 77 3.2 9.7 0.00 0.00 0.00 50 1019.9
20260502033104 21 77 3.2 9.7 0.00 0.00 0.00 48 1019.8
20260502032605 21 77 3.2 9.7 0.00 0.00 0.00 48 1019.8
20260502032104 21 77 3.2 9.7 0.00 0.00 0.00 49 1019.8
20260502031604 21 77 3.2 9.7 0.00 0.00 0.00 48 1019.8
20260502030604 21 77 3.2 9.7 0.00 0.00 0.00 48 1019.8
20260502030104 21 77 3.2 9.7 0.00 0.00 0.00 48 1019.7
20260502025104 21 77 3.2 9.7 0.00 0.00 0.00 47 1019.6
20260502024604 22 77 3.2 9.7 0.00 0.00 0.00 46 1019.4
20260502024104 22 77 3.2 9.7 0.00 0.00 0.00 46 1019.4
20260502023604 22 77 3.2 9.7 0.00 0.00 0.00 46 1019.3
20260502023103 22 77 3.2 9.7 0.00 0.00 0.00 45 1019.3
20260502022604 22 77 3.2 9.7 0.00 0.00 0.00 45 1019.2
20260502022104 22 77 3.2 9.7 0.00 0.00 0.00 45 1019.1
20260502021104 23 77 3.2 9.7 0.00 0.00 0.00 44 1019.0
20260502020105 23 77 3.2 9.7 0.00 0.00 0.00 44 1018.9
20260502015604 23 77 3.2 9.7 0.00 0.00 0.00 44 1018.8
20260502015105 24 77 3.2 9.7 0.00 0.00 0.00 43 1018.8
20260502014604 25 77 3.2 9.7 0.00 0.00 0.00 40 1018.7
20260502013604 25 77 3.2 9.7 0.00 0.00 0.00 38 1018.6
20260502013104 26 77 3.2 9.7 0.00 0.00 0.00 38 1018.5
20260502012604 26 77 3.2 9.7 0.00 0.00 0.00 37 1018.5
20260502012104 26 77 3.2 9.7 0.00 0.00 0.00 37 1018.5
20260502011104 26 77 3.2 9.7 0.00 0.00 0.00 37 1018.4
20260502010603 26 77 3.2 9.7 0.00 0.00 0.00 36 1018.3
20260502010104 26 77 3.2 9.7 0.00 0.00 0.00 36 1018.3
20260502005604 26 77 3.2 9.7 0.00 0.00 0.00 36 1018.2
20260502005104 26 77 3.2 9.7 0.00 0.00 0.00 36 1018.1
20260502004604 27 77 3.2 9.7 0.00 0.00 0.00 35 1018.1
20260502004104 27 77 3.2 9.7 0.00 0.00 0.00 35 1018.0
20260502003604 27 77 3.2 9.7 0.00 0.00 0.00 35 1018.0
20260502002604 27 77 3.2 9.7 0.00 0.00 0.00 34 1017.9
20260502002104 27 77 3.2 9.7 0.00 0.00 0.00 34 1017.8
20260502001603 27 77 3.2 9.7 0.00 0.00 0.00 34 1017.8
20260502001104 27 77 3.2 9.7 0.00 0.00 0.00 33 1017.8
20260502000604 27 77 3.2 9.7 0.00 0.00 0.00 33 1017.7
20260501235604 27 77 3.2 9.7 0.00 0.00 0.00 33 1017.6
20260501235104 28 77 3.2 9.7 0.00 0.00 0.00 33 1017.6
20260501234604 28 77 3.2 9.7 0.00 0.00 0.00 33 1017.6
20260501234104 28 77 3.2 9.7 0.00 0.00 0.00 32 1017.5
20260501233604 28 77 3.2 9.7 0.00 0.00 0.00 32 1017.5
20260501233104 28 77 3.2 9.7 0.00 0.00 0.00 32 1017.5
20260501232104 28 77 3.2 9.7 0.00 0.00 0.00 31 1017.5
20260501231604 28 77 3.2 9.7 0.00 0.00 0.00 32 1017.5
20260501231104 28 77 3.2 9.7 0.00 0.00 0.00 32 1017.5
20260501230604 28 77 3.2 9.7 0.00 0.00 0.00 32 1017.4
20260501230104 28 77 3.2 9.7 0.00 0.00 0.00 32 1017.4
20260501225603 28 77 3.2 9.7 0.00 0.00 0.00 31 1017.4
20260501225104 28 77 3.2 9.7 0.00 0.00 0.00 31 1017.4
20260501224104 28 77 3.2 9.7 0.00 0.00 0.00 32 1017.4
20260501223604 28 77 3.2 9.7 0.00 0.00 0.00 31 1017.5
20260501223104 28 77 3.2 9.7 0.00 0.00 0.00 31 1017.5
20260501222604 28 77 3.2 9.7 0.00 0.00 0.00 32 1017.5
20260501222104 28 77 3.2 9.7 0.00 0.00 0.00 31 1017.5
20260501221604 28 77 3.2 9.7 0.00 0.00 0.00 31 1017.5
20260501221104 28 77 3.2 9.7 0.00 0.00 0.00 31 1017.5
20260501220604 28 77 3.2 9.7 0.00 0.00 0.00 31 1017.5
20260501220104 28 77 3.2 9.7 0.00 0.00 0.00 31 1017.6
20260501215604 28 77 3.2 9.7 0.00 0.00 0.00 32 1017.7
20260501215104 28 77 3.2 9.7 0.00 0.00 0.00 31 1017.6
20260501214604 28 77 3.2 9.7 0.00 0.00 0.00 31 1017.7
20260501214104 28 77 3.2 9.7 0.00 0.00 0.00 31 1017.7
20260501213604 28 77 3.2 9.7 0.00 0.00 0.00 31 1017.7
20260501213104 28 77 3.2 9.7 0.00 0.00 0.00 31 1017.7
20260501211604 28 77 3.2 9.7 0.00 0.00 0.00 31 1017.8
20260501210604 28 77 3.2 9.7 0.00 0.00 0.00 31 1017.9
20260501205604 28 77 3.2 9.7 0.00 0.00 0.00 30 1018.0
20260501205104 28 77 3.2 9.7 0.00 0.00 0.00 32 1018.1
20260501204604 28 77 3.2 9.7 0.00 0.00 0.00 31 1018.1
20260501204104 28 77 3.2 9.7 0.00 0.00 0.00 32 1018.1
20260501203604 28 77 3.2 9.7 0.00 0.00 0.00 31 1018.1
20260501203104 28 77 3.2 9.7 0.00 0.00 0.00 32 1018.3
20260501202604 28 77 3.2 9.7 0.00 0.00 0.00 31 1018.3
20260501202104 28 77 3.2 9.7 0.00 0.00 0.00 31 1018.4
20260501200105 27 77 3.2 9.7 0.00 0.00 0.00 32 1018.7
20260501195604 27 77 3.2 9.7 0.00 0.00 0.00 32 1018.7
20260501195104 27 77 3.2 9.7 0.00 0.00 0.00 32 1018.8
20260501194604 27 77 3.2 9.7 0.00 0.00 0.00 32 1018.9
20260501194104 27 77 3.2 9.7 0.00 0.00 0.00 31 1018.9
20260501193604 27 77 3.2 9.7 0.00 0.00 0.00 32 1019.0
20260501193103 27 77 3.2 9.7 0.00 0.00 0.00 32 1019.0
20260501192604 27 77 3.2 9.7 0.00 0.00 0.00 32 1019.1
20260501192104 27 77 3.2 9.7 0.00 0.00 0.00 32 1019.2
20260501191604 27 77 3.2 9.7 0.00 0.00 0.00 31 1019.2
20260501191104 27 77 3.2 9.7 0.00 0.00 0.00 32 1019.2
20260501190604 27 77 3.2 9.7 0.00 0.00 0.00 32 1019.3
20260501184604 27 77 3.2 9.7 0.00 0.00 0.00 32 1019.6
20260501184104 26 77 3.2 9.7 0.00 0.00 0.00 32 1019.7
20260501183104 26 77 3.2 9.7 0.00 0.00 0.00 32 1019.8
20260501182604 26 77 3.2 9.7 0.00 0.00 0.00 33 1019.8
20260501182104 26 77 3.2 9.7 0.00 0.00 0.00 32 1019.9
20260501181604 26 77 3.2 9.7 0.00 0.00 0.00 33 1020.0
20260501181105 26 77 3.2 9.7 0.00 0.00 0.00 33 1020.0
20260501180604 25 77 3.2 9.7 0.00 0.00 0.00 33 1020.1
20260501180104 25 77 3.2 9.7 0.00 0.00 0.00 34 1020.1
20260501175104 25 77 3.2 9.7 0.00 0.00 0.00 33 1020.3
20260501174604 25 77 3.2 9.7 0.00 0.00 0.00 34 1020.3
20260501174105 25 77 3.2 9.7 0.00 0.00 0.00 34 1020.4
20260501173604 25 77 3.2 9.7 0.00 0.00 0.00 34 1020.4
20260501173104 25 77 3.2 9.7 0.00 0.00 0.00 34 1020.5
20260501172604 25 77 3.2 9.7 0.00 0.00 0.00 33 1020.5
20260501172104 25 77 3.2 9.7 0.00 0.00 0.00 34 1020.5
20260501171604 25 77 3.2 9.7 0.00 0.00 0.00 34 1020.6
20260501171104 24 77 3.2 9.7 0.00 0.00 0.00 34 1020.6
20260501170604 25 77 3.2 9.7 0.00 0.00 0.00 34 1020.7
20260501170105 25 77 3.2 9.7 0.00 0.00 0.00 34 1020.7
20260501165104 24 77 3.2 9.7 0.00 0.00 0.00 35 1020.7
20260501164104 23 77 3.2 9.7 0.00 0.00 0.00 35 1020.8
20260501163604 23 77 3.2 9.7 0.00 0.00 0.00 35 1020.8
20260501163104 23 77 3.2 9.7 0.00 0.00 0.00 35 1020.8